Regional Weather Roundup
Issued by NWS Charleston, SC

Current Version | Previous Version | Text Only | Print | Product List | Glossary Off
Versions: 1 2 3 4 5 6 7 8 9 10 11 12 13 14 15 16 17 18 19 20 21 22 23 24 25 26 27 28 29 30 31 32 33 34 35 36 37 38 39 40 41 42 43 44 45 46 47 48 49 50

000
ASUS42 KCHS 251713
RWRCHS

REGIONAL WEATHER ROUNDUP
NATIONAL WEATHER SERVICE CHARLESTON SC
100 PM EDT SUN SEP 25 2016

NOTE: "FAIR" INDICATES FEW OR NO CLOUDS BELOW 12,000 FEET WITH NO
SIGNIFICANT WEATHER AND/OR OBSTRUCTIONS TO VISIBILITY.

NOT ALL STATIONS ARE QUALITY CONTROLLED. USE DATA WITH CAUTION...
ESPECIALLY DEWPOINT OBSERVATIONS.

SCZ027-030-031-034>040-042>050-251800-
...SOUTHEAST SOUTH CAROLINA...

CITY           SKY/WX    TMP DP  RH WIND       PRES   REMARKS
N CHARLESTON   PTSUNNY   84  70  62 NE9       30.09S
WATERFRONT PRK   N/A     82  73  74 E9        30.07S
MOUNT PLEASANT FAIR      82  72  69 NE3       30.08F
JOHNS ISLAND   PTSUNNY   84  73  70 NE9       30.08F HX  91
PINOPOLIS        N/A     81  73  78 VRB3      30.04F
MONCKS CORNER  PTSUNNY   84  70  61 E5        30.09F
SUMMERVILLE    FAIR      84  70  61 NE7       30.10F
BEAUFORT MCAS  MOSUNNY   85  70  60 NE8       30.09F
BEAUFORT ARPT  PTSUNNY   82  72  69 E7        30.08F
HILTON HEAD IS PTSUNNY   84  72  65 E7        30.09F
WALTERBORO     SUNNY     88  70  55 E7        30.10F HX  92
ALLENDALE      FAIR      86  68  54 E6G12     30.08F

...SOUTHERN MIDLANDS AND PEE DEE...

CITY           SKY/WX    TMP DP  RH WIND       PRES   REMARKS
GEORGETOWN     PTSUNNY   82  72  69 NE8       30.10F
KINGSTREE      FAIR      82  66  57 E3        30.10F
ORANGEBURG     SUNNY     86  68  54 NE6       30.09F
BARNWELL       NOT AVBL
AIKEN          FAIR      84  64  51 E3        30.14S
MANNING        PTSUNNY   82  68  61 E6        30.10S
COLUMBIA       MOSUNNY   88  65  46 E7        30.09F HX  90
SUMTER         MOSUNNY   87  67  50 S5        30.08F HX  90
FLORENCE       SUNNY     85  70  60 VRB3      30.11F
MYRTLE BEACH   MOSUNNY   84  68  58 E12       30.12F
N MYRTLE BEACH CLOUDY    83  72  69 SE8       30.09F

$$

GAZ063-065-086>088-099>101-113>116-118-119-134>141-150-251800-
...SOUTHEAST GEORGIA...

CITY           SKY/WX    TMP DP  RH WIND       PRES   REMARKS
SAVANNAH ARPT  PTSUNNY   88  69  53 VRB3      30.08F HX  92
HUNTER AAF     MOSUNNY   86  77  74 E7        30.05F HX  96
FORT STEWART   MOSUNNY   85  70  59 E1        30.05F HX  90
STATESBORO     MOSUNNY   87  73  63 E3        30.09S HX  94
SYLVANIA       NOT AVBL
CLAXTON        FAIR      88  74  63 N6        30.08F HX  97

...CSRA...CENTRAL AND FAR SOUTHEAST GEORGIA...

CITY           SKY/WX    TMP DP  RH WIND       PRES   REMARKS
THOMSON        SUNNY     89  72  57 CALM      30.14S HX  95
AUGUSTA-BUSH   MOSUNNY   88  68  51 E6        30.08F HX  91
AUGUSTA-DANIEL SUNNY     89  64  43 E7        30.10F HX  90
SWAINSBORO     FAIR      86  68  54 CALM      30.10S
VIDALIA        PTSUNNY   88  75  66 E6        30.08F HX  97
EASTMAN        FAIR      90  56  32 SE3       30.10S
HAZLEHURST     FAIR      88  72  57 W5        30.07S HX  94
ALMA           SUNNY     88  71  57 VRB3      30.06F HX  94
WAYCROSS       MOSUNNY   89  74  61 NE5       30.06F HX  97
JESUP          FAIR      88  77  70 NE8       30.07F HX 100
BAXLEY         PTSUNNY   88  75  66 E3        30.07F HX  97
BRUNSWICK      PTSUNNY   86  77  74 E15       30.07F HX  97
SAINT SIMONS   PTSUNNY   83  73  72 NE15G21   30.06F

$$

SCZ027-028-034-036>038-045-046-048>050-GAZ119-141-251800-
...LAKE AND SUPPLEMENTAL COASTAL OBSERVATIONS...

STATION/POSITION TIME  TEMP    WIND        PRES    WAVE   SWELL
                       AIR SEA DIR/SP/G            HT/PER HT/PER/DIR
                 (UTC) (F)     (DEG/KT/KT) (MB)    (FT/S) (FT/S/D)
WINYAH BAY       NOT AVBL
LAKE MURRAY      1620   82     200/  2/  3 1019.0
ACE BASIN NERRS  1545   82      40/  3     1019.0
FORT PULASKI     1648   80 81   50/  9/ 12 1019.2F
SAPELO ISLAND    1600   82      20/  9     1019.0

$$

ANZ835-935-AMZ111-154-330-350-352-354-370-450-454-472-251800-
...C-MAN AND BUOY OBSERVATIONS...

STATION/POSITION TIME  TEMP    WIND        PRES    WAVE   SWELL
                       AIR SEA DIR/SP/G            HT/PER HT/PER/DIR
                 (UTC) (F)     (DEG/KT/KT) (MB)    (FT/S) (FT/S/D)
BUOY 41004       1650   82 82   50/ 16/ 17 1017.4F   4/11   3/ 90/11
BUOY 41008       1650   81 82   50/ 14/ 17 1017.9F   4/10   3/120/10
FOLLY BEACH CMAN 1600   80      50/ 11/ 13 1019.0F
CAPERS NEARSHORE 1608   80 81   50/ 14/ 19 1018.6F
FRIPP NEARSHORE  1608   80 81   40/ 10/ 14 1018.9F


STATION/POSITION TIME  TEMP    WIND        PRES    WAVE   SWELL
                       AIR SEA DIR/SP/G            HT/PER HT/PER/DIR
                 (UTC) (F)     (DEG/KT/KT) (MB)    (FT/S) (FT/S/D)
5E ST. MARYS GA  1601      83                N/A     3/11   2/120/11
FRYING PAN BUOY  1650   80 82   40/ 16/ 17 1018.5F   5/11   3/110/11
BUOY 41025       1650   74 85   30/ 19/ 21 1019.1F   5/11   3/100/11
CAPE LOOKOUT NC  1700   75      50/ 17/ 20 1019.5F
BUOY 41002       1650   82 84   70/ 10/ 12 1017.2F   4/10   3/ 90/10
BUOY 41010       NOT AVBL
ST AUGUSTINE FL  1700   81 85   20/ 12/ 14 1018.4F


$$



USA.gov is the U.S. government's official web portal to all federal, state and local government web resources and services.